{"data":{"norad_id":68335,"intl_designator":"2026-059Q","name":"STARLINK-37217","alt_names":[],"object_type":"PAYLOAD","status":"ACTIVE","operator":null,"country":"US","launch_date":"2026-03-22","launch_site_code":"AFETR","launch_vehicle":null,"mission":null,"orbit_class":"UNKNOWN","rcs_meters":null,"size_class":null,"mass_kg":null,"dimensions":null,"purposes":["comms"],"wikipedia_slug":null,"has_3d_model":false,"image_url":null,"decayed_at":null,"tle_current":{"epoch":"2026-09-20T04:16:14.426400Z","epoch_age_seconds":75508,"freshness":"FRESH","line1":"1 68335U 26059Q   26263.17794475  .00013413  00000+0  40731-3 0  9999","line2":"2 68335  53.1577 155.5687 0001165  81.8923 278.2212 15.34407345 28084","mean_motion":15.34407345,"eccentricity":0.0001165,"inclination_deg":53.1577,"raan_deg":155.5687,"arg_perigee_deg":81.8923,"mean_anomaly_deg":278.2212,"bstar":0.00040731,"rev_number":2808,"period_min":93.847308844836,"perigee_km":461.88445406161,"apogee_km":463.478364751,"semimajor_km":6840.8184094063,"source":"CELESTRAK","updated_at":"2026-09-20T09:00:43.887104Z"}}}